Regional Weather Roundup
Issued by NWS Mt. Holly, NJ

Home | Current Version | Previous Version | Text Only | Print | Product List | Glossary On
Versions: 1 2 3 4 5 6 7 8 9 10 11 12 13 14 15 16 17 18 19 20 21 22 23 24 25 26 27
000
ASUS41 KPHI 241810
RWRPHI

REGIONAL WEATHER ROUNDUP
NATIONAL WEATHER SERVICE MOUNT HOLLY NJ
200 PM EDT FRI OCT 24 2014

NOTE:  "FAIR" INDICATES FEW OR NO CLOUDS BELOW 12,000 FEET WITH NO
SIGNIFICANT WEATHER AND/OR OBSTRUCTIONS TO VISIBILITY.

 * = STATION DOES NOT REPORT PRECIPITATION (E.G. RAIN, SNOW, ETC.)
        OR FOG.

NJZ015>026-241900-
SOUTHERN NEW JERSEY

CITY           SKY/WX    TMP DP  RH WIND       PRES   REMARKS
POMONA         SUNNY     66  45  46 NW22      29.80F
6HR MIN TEMP:  47; 6HR MAX TEMP:  67;

RIO GRANDE*    MOSUNNY   64  46  52 W13G20    29.83F
MILLVILLE      SUNNY     66  43  43 NW16G25   29.82F
WRIGHTSTOWN    MOSUNNY   64  45  49 NW15G24   29.78F
MOUNT HOLLY    SUNNY     66  44  45 N14G24    29.80F
TRENTON        PTSUNNY   66  43  43 NW13G21   29.79F
6HR MIN TEMP:  54; 6HR MAX TEMP:  66;


$$
NJZ001>014-241900-
NORTHERN NEW JERSEY

CITY           SKY/WX    TMP DP  RH WIND       PRES   REMARKS
SUSSEX         MOSUNNY   66  44  45 VRB6      29.79F
ANDOVER*         N/A     62  42  47 N8G17     29.79F
MORRISTOWN     MOSUNNY   64  45  48 N16G22    29.79F
NEWARK         PTSUNNY   61  44  53 NW10      29.79F
TETERBORO      CLOUDY    61  44  53 NW9G16    29.77F
CALDWELL       PTSUNNY   61  42  49 N13       29.79F
SOMERVILLE     PTSUNNY   67  43  41 NW16      29.78F
ALLAIRE*       CLOUDY    63  45  51 NW12G17   29.79F
TOMS RIVER*    MOSUNNY   63  45  51 NW10G16   29.79F

$$
PAZ043-044-047-054-055-060>062-066>071-241900-
EASTERN PENNSYLVANIA

CITY           SKY/WX    TMP DP  RH WIND       PRES   REMARKS
PHILADELPHIA   MOSUNNY   68  43  40 NW17G24   29.82F
6HR MIN TEMP:  57; 6HR MAX TEMP:  68;

NORTH PHILA    SUNNY     69  41  36 NW16G24   29.82F
BLUE BELL      SUNNY     68  45  42 NW9G20    29.81F
DOYLESTOWN     SUNNY     66  43  43 N14G26    29.80F
QUAKERTOWN*    SUNNY     66  45  45 N10G20    29.82F
POTTSTOWN      SUNNY     66  44  45 W12G21    29.84F
LANCASTER      SUNNY     65  43  44 NW14      29.86F
COATESVILLE    SUNNY     64  45  48 NW12      29.86F
READING        SUNNY     68  44  42 NW17G24   29.85F
6HR MIN TEMP:  56; 6HR MAX TEMP:  68; 6HR PCP: TRACE;

ALLENTOWN      SUNNY     67  42  40 NW17G25   29.82F
6HR MIN TEMP:  54; 6HR MAX TEMP:  67;

MOUNT POCONO   SUNNY     58  40  51 NW23G35   29.82F
6HR MIN TEMP:  45; 6HR MAX TEMP:  59;

HAZLETON       MOSUNNY   61  43  51 NW13G21   29.89F
WILKES BARRE   SUNNY     63  42  46 NW13      29.85F

$$
DEZALL-MDZ008-012-015-019-020-241900-
DELAWARE AND EASTERN MARYLAND

CITY           SKY/WX    TMP DP  RH WIND       PRES   REMARKS
WILMINGTON     MOSUNNY   68  45  43 NW20G26   29.85F
6HR MIN TEMP:  56; 6HR MAX TEMP:  68;

DOVER          MOSUNNY   66  46  48 W18       29.82F
GEORGETOWN     SUNNY     68  46  45 N8G17     29.85F
6HR MIN TEMP:  54; 6HR MAX TEMP:  68;

EASTON         MOSUNNY   68  46  45 NW12G20   29.91F
PATUXENT       MOSUNNY   67  43  41 NW13      29.90F
OCEAN CITY     MOSUNNY   66  47  50 NW12G21   29.84F
WALLOPS ISLAND PTSUNNY   66  48  52 NW10      29.88F
CAMBRIDGE      SUNNY     66  45  45 NW12G20   29.88F
SALISBURY      SUNNY     69  45  41 NW13G21   29.86F

$$
PAZ001-021-NYZ056-072-MDZ011-DCZ001-241900-
OTHER NEARBY LOCATIONS

CITY           SKY/WX    TMP DP  RH WIND       PRES   REMARKS
HARRISBURG     MOSUNNY   65  38  36 W13       29.88F
STATE COLLEGE  SUNNY     61  39  44 W10G16    29.95F
WILLIAMSPORT   SUNNY     70  38  31 NW8G17    29.86F
BINGHAMTON     SUNNY     56  41  57 NW12G23   29.87F
NEW YORK CITY  CLOUDY    59  43  55 VRB7      29.80F
BALTIMORE      NOT AVBL
WASHINGTON DC  CLOUDY    69  40  34 NW10      29.92F

$$



USA.gov is the U.S. government's official web portal to all federal, state and local government web resources and services.